CZ-6A DEB

Satellite information

Favourite Embed

Satellite Type and Status

DEBRISIN ORBIT

Key statistics

Satellite CZ-6A DEB at a glance.

Uptime

1082

Days in orbit

Revolutions

≈ 14.8

Per day

Orbit

SSO

Sun Synchronous Orbit

Inclination

98.7

Latest

Satellite identification and parameters

Extended collection of information and parameters for CZ-6A DEB.

Object identification

Identified? True

Debris? True

Object name: CZ-6A DEB

International designator: 2022-151HP

Object number (NORAD): 54487

Object ID (CCSDS): 54487

Country: PEOPLES REPUBLIC OF CHINA (PRC)

Current information (Y/N): Y

RCS size: SMALL

Orbital parameters

Period: 97.563 minutes

Inclination: 98.6617 deg

SMA: 7020.192 km

Apoapsis: 683.161 km

Periapsis: 600.952 km

RAAN: 354.6166 deg

Eccentricy: 0.00585518

Argument of periapsis: 274.4668 deg

Mean anomaly: 84.9852 deg

Mean motion: 14.75975983 rev/day

Mean motion (dot): 0.00029457 rev/day2

B* drag term: 0.0041548433 1/REarth

Two-line elements (TLE)

Creation date: Oct. 26, 2025, 10:54 a.m.

Reference frame: TEME

Reference center: EARTH

Epoch: Oct. 26, 2025, 2:56 a.m. UTC

TLE line 0: 0 CZ-6A DEB

TLE line 1: 1 54487U 22151HP 25299.12271294 .00029457 00000-0 41548-2 0 9995

TLE line 2: 2 54487 98.6617 354.6166 0058552 274.4668 84.9852 14.75975983154239

Live tracking on map

Real-time ground track for satellite CZ-6A DEB.

In-orbit conjunctions

A list of the most updated potential collisions computed for object CZ-6A DEB.

Target Orbit TCA Probability of collision Miss distance Type
DELTA 1 R/B SSO 2025-02-27 10:00:48 0.0003340082 424.0 (m) ROCKET BODY
ATLAS 5 CENTAUR R/B SSO 2024-06-24 05:39:43 0.00010543 598.0 (m) ROCKET BODY

Associated space launch

Chinese satellite reported for atmospheric/ocean/environmental/spatial parameter research purposes, details TBD.

CZ-6A DEB was lifted into orbit during the mission ‘Long March 6A | Yunhai 3’, on board a Long March 6A space rocket.

The launch took place on Nov. 11, 2022, 10:52 p.m. from Launch Complex 9A.

For more information about the launch, click the button.

Launch to space Long March 6A | Yunhai 3
Long March 6A | Yunhai 3

Agency: N/A

Status: Launch Successful

Launch date: Nov. 11, 2022, 10:52 p.m. UTC

Rocket: Long March 6A

Launch pad: Launch Complex 9A

Location: Taiyuan Satellite Launch Center, People's Republic of China

...

Latest news about this satellite

There are no fresh news available about this satellite. Check back as we update our databases every day.


Newsletter sign-up

Weekly statistics, charts and insights to help you stay on top of the space industry.